Regional Weather Roundup
Issued by NWS Grand Forks, ND

Home | Current Version | Previous Version | Graphics & Text | Print | Product List | Glossary On
Versions: 1 2 3 4 5 6 7 8 9 10 11 12 13 14 15 16 17 18 19 20 21 22 23 24 25 26 27 28 29 30 31 32 33 34 35 36 37 38 39 40 41 42 43 44 45 46 47 48 49 50
000
ASUS43 KFGF 282010
RWRFGF
PRAIRIE TO PINES  WEATHER ROUNDUP
NATIONAL WEATHER SERVICE EASTERN NORTH DAKOTA/GRAND FORKS ND
200 PM CST SUN DEC 28 2014

 **SATELLITE DATA USED TO AUGMENT SKY COVER AT AUTOMATED STATIONS**
 *****  WEATHER ACROSS EASTERN NORTH DAKOTA  *****

CITY           SKY/WX    TMP DP  RH WIND       PRES   REMARKS
GRAND FORKS    SUNNY      0  -8  69 N10       30.35R WCI -16
GRAND FRKS AFB SUNNY      0  -7  71 N9        30.35R WCI -15
GRAND FRKS NWS   N/A      0 N/A N/A N7          N/A  WCI -13
DEVILS LAKE    SUNNY     -2 -11  65 NE8       30.27S WCI -17
FARGO          SUNNY      6  -4  63 N15       30.30R WCI -12
WAHPETON ARPT  PTCLDY    10   1  67 N13       30.26S WCI  -5
$$

 ***** WEATHER ACROSS CENTRAL AND WESTERN NORTH DAKOTA  *****

CITY           SKY/WX    TMP DP  RH WIND       PRES   REMARKS
BISMARCK       LGT SNOW  10   5  80 NE10      30.20R WCI  -4
MINOT          CLOUDY     2  -3  80 N8        30.25R WCI -12
JAMESTOWN      PTSUNNY    3  -5  69 NE8       30.24S WCI -10
MINOT AFB      CLOUDY     0  -2  90 NE7       30.26R WCI -13
GARRISON         N/A      8   2  76 NE8       30.20R WCI  -4
WILLISTON      CLOUDY    11   2  67 NE9       30.19R WCI  -2
DICKINSON      LGT SNOW  17  12  80 E15       30.04S WCI   2
HETTINGER      CLOUDY    20  16  84 E9        30.03S WCI   9
$$

 *****  OTHER AIRPORT OBSERVATIONS IN OUR AREA  *****

CITY           SKY/WX    TMP DP  RH WIND       PRES   REMARKS
WALHALLA         N/A     -2  -8  78 N8        30.36  WCI -17
GRAFTON AIRPOR NOT AVBL
VALLEY CITY AR FAIR       3   0  85 NE8       30.25  WCI -10
CANDO          FAIR       1  -6  71 NE3       30.29
CAVALIER APRT  FAIR      -2  -9  71 N8        30.36  WCI -17
GWINNER        MOCLDY     5  -2  72 N12       30.25  WCI -11
ROLLA          FAIR       0  -4  85 CALM      30.26
 ***** THE ABOVE OBSERVATIONS ARE NON NWS ARE NOT QUALITY
       CONTROLLED AND MAY MIS-REPORT RAIN FOR SNOW...
$$

  *****  WEATHER ACROSS NORTHERN MINNESOTA  *****

CITY           SKY/WX    TMP DP  RH WIND       PRES   REMARKS
FLAG ISLAND    CLOUDY    -4 -11  71 W9        30.25S WCI -20
WARROAD        SUNNY      1  -8  66 W7        30.27S WCI -11
ROSEAU         SUNNY      0  -8  71 W7        30.28S WCI -13
HALLOCK        SUNNY     -2  -9  71 NW8       30.35R WCI -17
THF RVR FALLS  SUNNY     -2  -8  78 NW8       30.29R WCI -17
BAUDETTE       SUNNY     -1 -11  62 NW7       30.24S WCI -14
WASKISH        SUNNY      3  -4  72 CALM      30.24R
CROOKSTON      SUNNY     -2  -9  71 N12       30.34S WCI -20
STEPHEN NDAWN    N/A     -4 -11  71 N9          N/A  WCI -20
GREENBUSH NDAW   N/A      0  -8  71 W10         N/A  WCI -17
$$
  *****  WEATHER ACROSS CENTRAL AND WEST MINNESOTA  *****

CITY           SKY/WX    TMP DP  RH WIND       PRES   REMARKS
FOSSTON        SUNNY      3  -6  66 NW7       30.26R WCI  -9
BEMIDJI        SUNNY      5  -3  70 NW8       30.21R WCI  -8
PARK RAPIDS    SUNNY     11  -3  53 N3        30.18S
ELBOW LAKE     FAIR      15   5  63 N6        30.19S WCI   7
WADENA         SUNNY     12   1  62 N7        30.18S WCI   2
DETROIT LAKES  SUNNY      9   3  78 NW9       30.22R WCI  -5
MOORHEAD       SUNNY      7   0  72 N14       30.29R WCI -10
FERGUS FALLS   SUNNY     14   0  52 N7        30.25R WCI   4
MORRIS MN      PTSUNNY   19  10  68 N10       30.18S WCI   8
STAPLES        SUNNY     14  -2  48 N6        30.18S WCI   5
$$
  *****  WEATHER ELSEWHERE ACROSS MINNESOTA  *****

CITY           SKY/WX    TMP DP  RH WIND       PRES   REMARKS
DULUTH         SUNNY     10  -5  50 N9        30.14S WCI  -3
INTRNTL FALLS  SUNNY      2  -8  63 W8        30.22R WCI -12
ELY            SUNNY      5  -6  61 NW6       30.15R WCI  -6
CLOQUET        SUNNY     10  -4  52 N8G16     30.16S WCI  -1
WHEATON        PTSUNNY    9   1  72 NW10G17   30.25S WCI  -6
BRAINERD       SUNNY     14  -1  51 N8        30.19R WCI   3
HIBBING        SUNNY      8  -4  58 NW9       30.17S WCI  -5
ALEXANDRIA     SUNNY     20   5  52 N9        30.16F WCI   9
SAINT CLOUD    SUNNY     23   9  55 N9        30.18R WCI  13
MINNEAPOLIS    PTSUNNY   22  14  71 NE9       30.18R WCI  12
$$

  *****  WEATHER ACROSS SOUTH DAKOTA  *****

CITY           SKY/WX    TMP DP  RH WIND       PRES   REMARKS
SIOUX FALLS    CLOUDY    17  14  88 NE9       30.14R WCI   6
BROOKINGS      NOT AVBL
WATERTOWN      CLOUDY    15  11  83 NE9       30.14R WCI   3
HURON          CLOUDY    19  16  88 E10       30.16S WCI   7
SISSETON         N/A      8   2  76 N12       30.23R WCI  -7
ABERDEEN       CLOUDY    12   7  80 NE15      30.21S WCI  -4
MITCHELL       MOSUNNY   20  14  77 NE7       30.14F WCI  11
PIERRE         PTSUNNY   19  15  84 E13       30.07S WCI   6
MOBRIDGE       CLOUDY    17  11  77 E14       30.10R WCI   3
RAPID CITY     CLOUDY    26  15  63 NE9       29.93F WCI  17
$$

  *****  SOME WEATHER IN NEARBY STATES *****

CITY           SKY/WX    TMP DP  RH WIND       PRES   REMARKS
GLASGOW MT     CLOUDY    15   7  70 NE17      30.13R WCI  -1
GREAT FALLS MT HVY SNOW  13  10  88 NW13      30.11R VSB 1/4 WCI  -2
CHEYENNE WY    MOSUNNY   33  11  39 W6        29.81S
SCOTTSBLUFF NE CLOUDY    30  21  69 W7        29.88F WCI  23
OMAHA NE       PTSUNNY   32  20  61 CALM      30.13F
DES MOINES IA  MOSUNNY   33  23  66 S3        30.14F
DAVENPORT IA   SUNNY     32  16  51 SW7       30.17F
CHICAGO IL     MOSUNNY   34  13  41 W10       30.14R
EAU CLAIRE WI  CLOUDY    18  12  77 CALM      30.16R
LA CROSSE WI   SUNNY     28  17  63 CALM      30.16R
$$

  *****  SOME NATIONAL WEATHER *****

CITY           SKY/WX    TMP DP  RH WIND       PRES   REMARKS
LA GUARDIA NY  CLOUDY    52  42  69 NW9       29.89R
RALEIGH NC     CLOUDY    61  54  77 SW10      30.01S
ATLANTA GA     CLOUDY    61  58  90 W5        30.05S
NEW ORLEANS LA CLOUDY    60  57  89 NW6       30.05R
OKLAHOMA CITY  SUNNY     39  22  50 S7        30.14F
ALBUQUERQUE NM MOSUNNY   34   9  35 VRB7      30.11F
SALT LAKE CITY LGT SNOW  28  25  88 SE6       30.06F FOG     WCI  22
LOS ANGELES CA MOSUNNY   59  24  26 CALM      30.23F
BOISE ID       PTSUNNY   32  30  92 CALM      30.09F
SEATTLE WA     CLOUDY    42  38  85 W5        30.21F
$$

*** WEATHER ACROSS MANITOBA...SASKATCHEWAN AND ONTARIO ***
                ***ONTARIO***

CITY           SKY/WX    TMP DP  RH WIND       PRES   REMARKS
GERALDTON      MOSUNNY   -2 -11  65 NW9       30.00R WCI -18
THUNDER BAY    MOSUNNY    9  -4  56 NW12G17   30.14R WCI  -6
SIOUX LOOKOUT  MOSUNNY   -9 -18  64 W7        30.16R WCI -24
TORONTO        PTSUNNY   37  25  60 W13       29.99S
BIG TROUT LK   CLEAR    -17 -22  76 W14       30.04R HAZE    WCI -40
PICKLE LAKE    CRYSTALS -11 -20  64 W10G17    30.04R WCI -30
DRYDEN         FLURRIES  -8 -15  71 W12       30.17R WCI -27
KENORA         CRYSTALS  -8 -15  71 W8        30.21S WCI -23
$$
                *** MANITOBA***

CITY           SKY/WX    TMP DP  RH WIND       PRES   REMARKS
BRANDON        SUNNY     -4 -11  71 W10       30.32S WCI -21
DAUPHIN        SUNNY    -11 -17  77 SW8       30.39R WCI -28
ISLAND LAKE    PTCLDY   -18 -26  69 W10       30.23R WCI -39
PILOT MOUND      N/A     -4 -11  71 W5          N/A  WCI -15
THE PAS        MOSUNNY  -17 -24  70 NW12      30.44R WCI -38
THOMPSON       CLEAR    -17 -24  70 NW9       30.34R WCI -36
WINNIPEG       NOT AVBL
$$
                ***SASKATCHEWAN***

CITY           SKY/WX    TMP DP  RH WIND       PRES   REMARKS
ESTEVAN        PTSUNNY   -4 -11  71 NE7       30.26S WCI -18
KINDERSLEY     NOT AVBL
LLOYDMINSTER   NOT AVBL
PRINCE ALBERT  NOT AVBL
REGINA         NOT AVBL
YORKTON        SUNNY    -11 -17  77 NW5       30.34R WCI -23
N. BATTLEFORD  SUNNY    -11 -17  77 NW2       30.46R
LA RONGE       SUNNY    -18 -24  76 W5        30.50R WCI -31
SASKATOON      MOSUNNY   -9 -15  77 N6        30.44S WCI -23
SWIFT CURRENT  CLOUDY     1  -4  78 E13       30.24R WCI -16
$$
NOTE: THESE ARE AUTOMATED STATIONS WITH LIMITED QUALITY CONTROL
      "FAIR" INDICATES FEW OR NO CLOUDS BELOW 12,000 FEET WITH NO
      SIGNIFICANT WEATHER AND/OR OBSTRUCTIONS TO VISIBILITY.
      SKY/WX - SKY CONDITION AND SIGNIFICANT WEATHER.
      TMP - AIR TEMPERATURE.    DP   - DEWPOINT TEMPERATURE.
      RH  - RELATIVE HUMIDITY.  PRES - PRESSURE.
      HX  - HEAT INDEX.         WCI  - WIND CHILL INDEX.
$



USA.gov is the U.S. government's official web portal to all federal, state and local government web resources and services.